Regional Weather Roundup
Issued by NWS

Home | Current Version | Previous Version | Graphics & Text | Print | Product List | Glossary On
Versions: 1 2 3 4 5 6 7 8 9 10 11 12 13 14 15 16 17 18 19 20 21 22 23 24 25 26 27 28 29 30 31 32 33 34 35 36 37 38 39 40 41 42 43 44 45 46 47 48
000
ASUS45 KCYS 071310
RWRWY

WYOMING REGIONAL WEATHER ROUNDUP
NATIONAL WEATHER SERVICE CHEYENNE WY
600 AM MST SUN FEB 07 2016

NOTE:  "FAIR" INDICATES FEW OR NO CLOUDS BELOW 12,000 FEET
WITH NO SIGNIFICANT WEATHER AND/OR OBSTRUCTIONS TO VISIBILITY.

WYZ001-071400-
YELLOWSTONE NATIONAL PARK

CITY           SKY/WX    TMP DP  RH WIND       PRES   REMARKS
LK YELLOWSTONE   N/A      3  -1  83 W3        30.36R
W YELLOWSTONE  NOT AVBL

$$
WYZ002>013-054>058-071-098>099-071400-
NORTHERN WYOMING

CITY           SKY/WX    TMP DP  RH WIND       PRES   REMARKS
JACKSON        MOCLDY    28  23  80 S14       30.37R WCI  17
CODY           FAIR      25  18  74 CALM      30.28R
GREYBULL       CLOUDY    34  13  41 NW15      30.28R WCI  24
WORLAND        FAIR      26  16  65 W12       30.29R WCI  16
SHERIDAN       CLOUDY    34  14  44 NW18      30.26R WCI  23
BUFFALO        CLOUDY    31  13  47 NW26G40   30.21S WCI  17
GILLETTE       CLOUDY    30  15  53 NW18G30   30.20R WCI  18
HULETT         FAIR      30  12  47 NW9G17    30.17R WCI  22
NEWCASTLE      FAIR      32   9  37 NW24G35   30.16R WCI  19

$$
WYZ014>020-022>026-101>103-071400-
CENTRAL WYOMING

CITY           SKY/WX    TMP DP  RH WIND       PRES   REMARKS
BIG PINEY      FAIR      27  18  69 N23       30.35R WCI  12
PINEDALE       FAIR      21  18  86 NW17      30.34R WCI   7
DUBOIS         FAIR      25  14  63 NW25      30.24S WCI   9
LANDER         FAIR      24  12  60 E6        30.27R WCI  17
RIVERTON       FAIR      24  12  60 NE7       30.28R WCI  16
CASPER         CLOUDY    12   6  77 W5        30.26R WCI   4
DOUGLAS        CLOUDY    27  22  81 NW15G23     N/A  WCI  15

$$
WYZ021-027>030-104>119-071400-
SOUTHERN WYOMING

CITY           SKY/WX    TMP DP  RH WIND       PRES   REMARKS
EVANSTON       FAIR      22  12  65 SW16      30.42R WCI   8
FORT BRIDGER   MOSUNNY   23  18  80 W16       30.44R WCI  10
ROCK SPRINGS   FAIR      23  15  71 W15       30.37R WCI  10
DIXON          FAIR      10   5  79 CALM      30.40R
RAWLINS        FAIR      22  15  75 W21       30.28R WCI   6
SARATOGA       FAIR      23  19  86 W24G30    30.27R WCI   7
LARAMIE        FAIR      25  15  66 W26       30.16R WCI   9
CHEYENNE       FAIR      29  17  61 N8        30.17R WCI  21
TORRINGTON     LGT SNOW  30  23  75 N14G26    30.23R WCI  19
PINE BLUFFS    FAIR      23  16  74 NW10      30.19S WCI  12

$$



USA.gov is the U.S. government's official web portal to all federal, state and local government web resources and services.